Content
SEND FEEDBACK

Daily
Averages
Monthly
Summary
United States of America

MEXIA, TEXAS


Home > North America > United States > Texas
Elevation: 163 meters     Latitude: 31 41N     Longitude: 096 29W

WEATHER
 
SELECT A DAY
Number of Records: 174,962;   Date Range: 5/20/97 - 7/27/14
 
SHARE

PRINT THIS DATA

[ ← Previous Day ]
WEATHER ALMANAC - 18 FEBRUARY, 2013
[ Next Day → ]
[ °F ]   °C
Weather ElementAverageHighLow
Temperature17.6 °C26.7 °C (3:53 pm)11.1 °C (11:53 pm)
Dewpoint7.7 °C14.4 °C (11:53 am)1.1 °C (5:53 pm)
Humidity55.4 %75 % (5:53 am)20 % (3:53 pm)
Barometer1012.9 hPa1019.6 hPa (11:53 pm)1008.5 hPa (3:53 pm)
Wind Speed28.2 km/h46.3 km/h (11:53 am)
Wind Gust59.2 km/h (11:53 am)
Weather ElementAverage
Visibility16.1 km
Wind DirectionWSW (240 °)

Weather ElementTotal
Precipitation---
Cooling Degree Days0.6 (Base 18.3)
Growing Degree Days8.9 (Base 10)
Averaged from 24 records on 18 February, 2013
WEATHER CONDITIONS BREAKOUT
WIND DIRECTION BREAKOUT
WEATHER BY HOUR - 18 FEBRUARY, 2013
[ °F ]   °C
Local TimeTemperatureDewpointHumidityBarometerVisibilityWind DirectionWind SpeedGust SpeedPrecipitationEventsConditions
1:53 AM14.4 °C8.3 °C67 %1013.9 hPa16.1 kmSouth (170°)25.9 km/h37 km/hMostly Cloudy
2:53 AM15 °C8.9 °C67 %1012.5 hPa16.1 kmSouth (170°)25.9 km/hOvercast
3:02 AM15 °C9 °C67 %1012.5 hPa16.1 kmSouth (170°)31.5 km/hOvercast
3:53 AM15.6 °C10 °C69 %1012.2 hPa16.1 kmSouth (170°)29.6 km/h40.7 km/hOvercast
4:53 AM15.6 °C10.6 °C72 %1011.5 hPa16.1 kmSouth (180°)29.6 km/h40.7 km/hOvercast
5:53 AM15.6 °C11.1 °C75 %1011.9 hPa16.1 kmSouth (180°)22.2 km/hOvercast
6:53 AM15.6 °C11.1 °C75 %1011.5 hPa16.1 kmSouth (180°)24.1 km/h40.7 km/hOvercast
7:53 AM16.1 °C11.7 °C75 %1011.9 hPa16.1 kmSouth (170°)24.1 km/hOvercast
8:53 AM17.2 °C12.8 °C75 %1011.9 hPa16.1 kmSouth (180°)29.6 km/h42.6 km/hOvercast
9:53 AM18.9 °C13.9 °C73 %1011.9 hPa14.5 kmSSW (200°)38.9 km/h57.5 km/hOvercast
10:53 AM20 °C13.9 °C68 %1011.5 hPa16.1 kmSSW (200°)29.6 km/h40.7 km/hOvercast
11:53 AM21.1 °C14.4 °C65 %1010.8 hPa16.1 kmSSW (210°)46.3 km/h59.2 km/hOvercast
12:53 PM23.3 °C14.4 °C57 %1010.2 hPa16.1 kmSSW (210°)40.7 km/h55.5 km/hMostly Cloudy
1:53 PM24.4 °C13.3 °C50 %1008.8 hPa16.1 kmSSW (210°)35.2 km/h53.8 km/hMostly Cloudy
2:53 PM25 °C8.9 °C36 %1008.8 hPa16.1 kmWSW (240°)24.1 km/hPartly Cloudy
3:53 PM26.7 °C1.7 °C20 %1008.5 hPa16.1 kmWSW (250°)33.3 km/h40.7 km/hClear
4:53 PM22.2 °C2.2 °C27 %1010.2 hPa16.1 kmNNW (330°)33.3 km/h51.8 km/hClear
5:53 PM18.9 °C1.1 °C30 %1012.2 hPa16.1 kmNNW (330°)22.2 km/h44.4 km/hClear
6:53 PM16.7 °C1.1 °C35 %1013.9 hPa16.1 kmNNW (330°)25.9 km/h38.9 km/hClear
7:53 PM15 °C1.7 °C41 %1015.6 hPa16.1 kmNW (320°)20.4 km/hClear
8:53 PM13.9 °C1.7 °C44 %1016.9 hPa16.1 kmNNW (340°)22.2 km/hClear
9:53 PM13.3 °C1.1 °C44 %1018.3 hPa16.1 kmNNW (330°)24.1 km/hClear
10:53 PM12.2 °C1.1 °C47 %1019 hPa16.1 kmNNW (340°)16.7 km/hClear
11:53 PM11.1 °C1.1 °C50 %1019.6 hPa16.1 kmNorth (350°)20.4 km/hClear
Hourly data recorded from KCRS, located 0 kilometers away from Mexia, Texas







STORIES FROM OUR PARTNERS